Location: Bratislava
(48.1500°N, 17.1170°E)
Time: 07:01:28
(UTC+02:00)

Courier 1B Rocket - Visible Passes

Search period start: 08 June 2026 00:00
Search period end: 18 June 2026 00:00
Orbit: 920 x 1201 km, 28.2° (Epoch: 7 June)

Date Brightness Start Highest point End Pass type
(mag) Time Alt. Az. Time Alt. Az. Time Alt. Az.
9 Jun 6.9 22:25:30 10° S 22:28:12 13° SSE 22:28:12 13° SSE visible
10 Jun 6.9 23:15:26 10° SSW 23:17:47 14° SSW 23:17:47 14° SSW visible
11 Jun 6.8 22:14:53 10° SSW 22:18:47 15° S 22:20:41 13° SSE visible
12 Jun 7.2 00:06:42 10° SW 00:07:03 11° SW 00:07:03 11° SW visible
12 Jun 6.7 23:05:35 10° SW 23:09:43 16° S 23:09:43 16° S visible
13 Jun 6.8 22:04:47 10° SSW 22:09:02 16° S 22:12:15 12° SSE visible
13 Jun 7.1 23:57:23 10° SW 23:58:35 12° SSW 23:58:35 12° SSW visible
14 Jun 6.8 22:56:01 10° SW 23:00:17 16° S 23:00:59 16° S visible
15 Jun 6.8 21:55:01 10° SW 21:59:17 16° S 22:03:18 11° SSE visible
15 Jun 7.1 23:48:33 10° SW 23:49:38 11° SSW 23:49:38 11° SSW visible
16 Jun 6.9 22:46:48 10° SW 22:50:32 14° S 22:51:53 14° S visible
17 Jun 6.9 21:45:33 10° SW 21:49:33 15° S 21:53:37 10° SSE visible
